GFSGBSN_925_thetae_276.txt.gz
Theta_e
316 317 318 318 319 319 319 318 318 317 318 318 319 319 319 319 319 319 319 319 319 319 319 318 316 315 315 322 318 324 324 325 326 327 329 330 332 337 340 338 339 339 337 344 349 349 345
320 319 319 320 320 320 320 320 319 319 318 319 319 319 319 320 320 319 319 319 319 319 318 316 315 313 324 319 317 318 318 322 328 329 332 331 333 336 338 337 337 339 335 339 349 348 347
321 321 321 321 321 321 320 320 319 319 319 319 319 319 319 319 320 320 319 319 319 319 316 315 314 316 325 319 320 324 322 325 327 330 330 331 333 332 330 335 337 338 335 333 346 346 348
318 319 319 320 320 320 320 319 319 319 319 319 319 319 319 319 319 320 320 319 319 319 316 314 313 320 319 317 320 321 321 322 322 325 326 327 329 329 332 331 334 337 337 335 336 346 348
315 315 316 317 317 318 319 319 319 319 319 319 319 319 319 319 319 320 321 320 320 320 317 313 317 319 319 324 325 322 322 322 322 322 324 327 328 330 329 331 333 336 338 341 340 340 346
318 318 317 317 316 317 318 319 319 318 319 319 319 319 319 319 319 319 321 320 324 322 318 319 322 318 319 323 323 323 322 322 319 319 323 325 324 329 328 330 336 338 339 340 340 339 343
317 318 317 318 318 318 316 316 318 318 318 318 319 319 319 319 319 319 320 321 321 319 321 322 318 318 318 322 323 321 322 320 318 318 319 321 325 328 331 332 334 335 338 340 340 340 342
318 318 317 317 317 317 318 316 316 316 317 318 318 318 319 319 319 320 322 320 324 325 322 319 323 321 322 322 324 318 320 316 316 316 319 321 325 327 330 332 334 335 338 338 341 341 337
317 318 317 317 317 317 317 316 316 316 316 316 318 318 318 318 319 324 321 322 325 325 321 321 321 322 323 323 324 317 316 314 316 316 318 320 323 326 330 332 332 332 338 342 342 340 337
316 316 317 316 316 317 317 316 316 316 316 316 317 318 318 318 322 320 322 323 324 325 321 323 322 322 323 324 322 318 318 317 317 315 315 319 321 325 328 331 331 331 336 342 342 340 337
314 315 315 315 315 316 316 316 316 315 315 316 317 318 317 317 319 321 322 323 324 322 329 327 322 323 320 322 320 320 318 317 317 318 317 320 324 324 327 328 330 333 338 339 339 336 333
314 314 314 315 315 315 315 314 314 314 314 315 317 318 317 317 318 320 322 323 324 324 328 327 322 322 321 320 321 320 320 318 317 317 318 319 321 323 324 326 331 335 338 336 334 332 337
312 312 312 313 312 314 315 315 314 314 313 315 317 318 317 316 319 322 321 321 323 329 327 327 323 319 319 319 320 320 320 318 316 317 316 316 318 320 324 326 326 336 334 338 339 336 339
310 309 310 310 311 311 312 313 311 313 314 315 317 317 318 319 320 321 323 322 332 330 328 326 326 321 323 319 319 320 318 315 317 316 315 317 318 323 325 324 325 329 334 340 342 341 338
309 309 309 309 309 310 310 310 310 312 314 315 317 319 320 321 322 322 319 326 327 327 327 326 325 323 320 320 320 318 316 315 316 314 316 317 321 323 325 325 325 326 331 335 336 334 333
309 309 309 309 309 309 309 310 311 312 314 317 318 317 321 324 325 322 321 325 325 326 325 325 326 326 326 325 322 317 316 317 319 316 314 316 317 319 322 324 324 325 327 331 331 337 340
309 309 309 309 309 310 309 310 310 313 315 319 320 322 328 325 325 319 324 323 324 324 324 324 325 324 325 326 323 317 317 318 319 320 314 314 316 320 324 323 324 327 332 331 330 332 336
309 309 309 309 309 309 309 310 310 313 315 318 319 326 326 326 324 322 325 325 322 323 324 323 324 323 325 324 323 324 320 318 319 319 318 315 314 317 319 321 324 325 329 330 333 334 331
308 309 308 309 309 309 309 310 310 312 315 315 317 322 329 326 328 326 324 326 325 326 325 324 325 324 323 323 323 324 327 327 329 318 317 317 315 318 319 318 325 330 328 328 328 329 334
308 309 309 309 309 309 309 310 310 312 315 315 318 328 325 323 323 329 329 329 328 328 328 327 326 324 324 322 322 328 340 337 335 335 339 324 313 316 319 320 333 332 331 331 324 328 332
307 308 308 310 309 309 310 310 310 313 316 315 317 325 327 329 328 328 328 327 332 331 327 325 324 325 324 323 327 341 339 337 334 338 325 314 317 318 320 323 334 334 332 332 332 333 336
307 307 308 310 310 310 310 310 310 313 315 316 319 326 324 327 326 328 329 333 332 331 334 335 328 329 322 321 331 336 338 336 336 334 333 327 317 320 323 333 333 334 335 333 332 333 332
307 307 308 309 310 310 310 310 310 312 315 319 323 323 322 326 327 327 328 331 332 334 335 335 335 334 323 328 335 333 332 330 333 336 336 335 329 321 320 321 324 326 331 333 332 336 338
307 307 307 309 311 310 310 310 310 311 314 316 318 320 322 328 328 331 331 331 334 334 336 335 335 335 335 331 331 333 335 337 335 333 331 335 332 320 325 332 334 328 333 334 335 334 336
307 307 308 310 310 311 310 310 310 310 312 315 316 319 322 326 327 329 328 329 332 331 335 337 334 331 328 333 334 336 337 335 337 336 334 331 323 325 329 333 333 334 334 335 336 336 343
307 307 308 310 310 310 310 311 310 310 311 314 315 318 321 326 324 325 326 327 333 331 332 334 332 329 333 331 332 344 344 343 343 339 332 333 332 331 326 333 336 331 339 340 336 344 346
306 307 308 309 309 310 310 310 310 310 311 315 316 318 322 325 320 322 326 327 326 328 329 332 331 333 335 333 341 345 345 339 340 342 341 339 337 339 329 330 330 342 341 342 343 353 349
306 306 307 309 309 310 310 310 310 310 314 316 316 317 321 322 319 320 321 322 323 326 329 330 335 332 338 340 339 338 341 341 340 339 339 340 346 349 345 331 339 339 342 340 344 344 353
306 306 308 309 309 310 310 310 310 311 315 317 316 317 317 319 319 320 319 319 320 321 323 324 330 331 338 338 336 335 337 335 333 337 333 345 339 342 344 344 336 336 341 340 342 346 344

GFSGBSN_925_thetae_279.txt.gz
Theta_e
320 320 320 321 321 321 320 320 320 319 319 319 319 319 319 319 319 319 320 319 319 319 318 317 315 315 315 317 315 318 323 321 325 326 327 329 332 336 337 336 336 337 337 345 348 345 345
320 320 320 320 320 320 320 319 319 319 319 319 319 319 319 319 319 319 320 320 319 319 319 316 314 313 323 316 316 318 318 319 320 328 329 329 332 333 334 335 334 336 336 348 347 345 345
317 317 318 318 318 318 319 319 319 319 319 319 319 320 319 319 319 319 319 320 320 319 319 315 314 315 322 315 317 320 319 320 321 325 328 327 329 331 330 330 333 335 340 348 349 346 347
316 316 315 316 316 316 318 318 319 318 318 319 319 319 319 319 319 319 319 320 320 320 319 314 313 319 314 316 318 320 320 320 322 321 323 324 325 326 329 329 331 336 334 337 347 347 347
318 318 318 318 318 318 317 316 317 318 318 318 318 318 319 319 319 319 320 320 321 321 318 313 318 317 317 321 323 321 321 321 321 321 321 323 326 327 328 331 332 333 337 339 345 346 348
318 318 317 317 317 317 318 317 315 316 316 317 317 318 319 319 319 319 320 321 323 320 316 320 321 316 316 320 322 323 320 321 319 318 318 324 323 326 326 329 335 336 336 336 339 347 346
317 318 318 317 317 316 317 317 316 316 316 316 316 317 318 318 319 319 321 323 319 319 322 322 320 315 315 321 323 321 320 318 316 315 317 318 323 327 329 330 332 334 335 336 337 339 342
316 316 317 317 316 316 317 316 316 316 316 316 316 317 318 317 317 320 322 320 323 322 322 320 320 319 320 322 323 322 318 317 316 315 318 317 321 322 326 330 332 332 333 333 337 340 337
315 315 316 316 316 316 316 316 316 316 315 314 315 317 317 318 318 322 319 321 322 322 321 320 319 321 321 321 322 322 315 313 315 314 316 317 320 323 326 328 331 330 332 335 340 339 336
315 314 314 314 315 315 315 315 315 314 314 313 314 316 317 317 320 318 321 322 322 322 319 321 320 320 321 322 323 321 315 315 316 314 313 316 317 321 323 327 328 330 330 333 341 338 339
312 313 313 314 314 314 315 315 315 314 314 314 313 316 316 317 317 317 321 321 324 319 323 325 321 321 319 320 319 319 316 316 316 316 314 316 323 323 323 324 328 328 330 332 339 336 333
310 313 312 311 311 311 311 312 313 313 311 313 314 315 316 316 316 317 320 322 321 322 322 325 321 322 322 321 321 318 318 316 315 317 316 316 318 321 321 323 325 327 334 332 331 331 335
309 309 309 310 309 310 310 310 310 310 311 312 314 317 316 315 317 320 319 318 321 327 324 325 323 320 320 320 321 320 319 316 315 315 314 315 316 317 321 321 322 333 331 335 337 336 336
309 309 309 309 309 309 309 310 310 310 311 313 316 317 318 317 317 320 321 321 329 326 328 324 325 321 320 317 319 319 316 316 314 314 312 315 317 318 321 320 321 325 329 335 340 338 335
309 309 309 309 309 309 310 310 309 310 312 315 317 319 320 322 320 320 317 325 321 325 325 324 322 320 321 320 319 319 316 314 314 312 316 316 318 320 323 324 323 325 333 330 332 330 332
309 309 308 308 309 309 309 309 309 310 313 316 317 317 320 323 322 320 319 321 324 323 323 323 325 324 325 324 323 317 316 315 317 313 314 316 316 316 319 321 321 323 325 333 328 337 338
309 308 308 308 309 309 309 309 310 310 315 316 319 321 324 323 322 316 318 321 324 322 322 323 324 324 322 324 323 317 316 316 317 317 313 313 314 317 320 321 321 321 328 327 327 329 335
308 308 308 308 309 309 309 309 310 310 315 316 315 326 324 322 322 317 323 322 322 322 323 323 321 322 322 323 322 322 322 319 323 314 315 312 311 314 316 317 320 322 323 328 330 332 329
307 308 308 308 309 309 309 309 310 311 314 314 318 318 324 323 327 325 324 326 325 326 325 324 324 324 324 322 324 322 327 327 334 317 316 314 313 315 315 315 323 327 327 326 324 327 333
307 307 308 308 309 309 309 309 310 311 315 314 318 328 322 320 319 326 328 329 328 327 326 325 324 323 323 322 320 326 337 336 334 334 335 317 310 315 318 317 326 330 330 327 324 327 329
308 308 307 308 310 309 309 309 310 310 315 315 317 323 324 328 326 327 328 329 332 332 327 328 328 333 329 322 329 335 336 333 331 335 330 318 315 315 314 316 327 332 329 330 331 329 334
307 307 307 308 310 310 310 310 310 311 315 316 319 323 322 323 324 327 326 330 331 335 332 335 336 336 333 321 321 323 335 331 334 332 333 326 327 320 319 326 329 332 330 331 331 331 331
307 307 307 307 309 311 310 310 310 311 315 318 321 320 320 323 325 326 327 330 333 332 333 333 335 334 334 334 331 328 329 327 332 335 333 331 332 331 335 321 323 321 321 325 330 330 331
307 307 307 308 309 311 310 310 310 310 313 315 317 319 320 326 327 329 329 328 331 332 334 333 333 333 333 328 329 332 330 333 332 330 328 331 330 324 334 327 331 323 323 329 331 333 338
307 307 307 308 310 310 311 310 310 310 311 313 315 318 324 326 324 326 327 327 328 328 332 335 333 331 326 329 331 333 333 333 335 334 331 328 325 325 333 329 330 331 332 333 332 335 347
307 307 307 308 310 310 310 310 310 309 310 313 316 316 317 322 320 324 325 325 328 329 328 331 331 326 330 328 335 339 339 341 341 336 330 331 327 330 327 333 331 328 339 338 336 336 348
306 306 307 307 310 309 310 310 310 310 309 312 314 316 319 324 317 321 323 325 322 325 326 327 329 332 332 333 340 342 341 337 337 338 339 335 333 335 332 331 327 339 339 338 335 337 350
306 306 306 307 309 309 310 310 310 309 310 314 314 316 319 322 317 319 319 320 320 322 327 325 329 331 336 337 336 336 338 338 339 337 338 336 341 343 341 331 331 335 340 339 336 343 347
306 306 306 307 309 309 309 310 310 309 312 316 314 317 316 318 317 319 318 319 318 320 320 321 326 328 334 333 333 333 336 335 331 335 331 337 338 339 340 341 336 335 336 337 340 346 344

GFSGBSN_925_thetae_285.txt.gz
Theta_e
316 316 316 316 316 316 316 317 317 318 318 318 318 318 318 318 318 319 320 320 320 319 319 319 318 315 315 315 316 315 318 318 326 324 327 330 337 337 338 336 335 337 342 347 347 345 345
318 318 317 317 318 317 318 317 316 316 316 316 316 317 317 318 318 319 319 320 320 319 319 319 318 314 318 317 314 315 319 320 321 327 329 331 333 332 335 334 334 336 347 348 345 346 346
318 317 317 317 317 317 317 317 318 317 316 316 316 316 316 317 317 318 319 320 319 319 320 319 315 315 318 317 316 316 317 319 321 327 329 329 329 329 330 334 332 334 344 346 347 346 346
318 317 318 318 317 317 316 316 317 317 317 317 316 316 316 317 317 318 319 319 320 321 320 317 313 317 317 315 317 319 318 319 320 322 323 324 325 328 331 331 335 337 338 342 342 346 347
316 316 317 318 318 316 316 316 316 316 316 316 315 315 316 317 317 317 318 320 322 319 314 313 317 316 318 317 320 321 320 320 318 318 319 323 326 330 332 337 340 337 340 339 339 347 348
316 315 315 316 315 315 315 315 315 315 314 314 314 314 315 318 317 317 320 322 320 319 319 321 321 320 319 320 320 321 320 319 319 319 323 326 328 334 334 339 344 339 338 337 338 342 348
317 316 315 314 314 315 314 315 315 315 315 314 314 313 314 317 317 318 320 320 323 322 322 325 322 317 321 320 320 321 317 317 318 320 325 322 331 336 338 337 336 336 337 336 336 337 342
314 314 314 314 313 314 314 313 312 313 314 313 313 311 313 317 318 320 319 322 321 320 327 323 323 322 322 321 324 322 316 320 320 321 319 324 330 331 333 333 335 335 337 337 336 338 342
313 311 312 312 312 311 310 311 311 310 310 311 310 311 312 316 317 317 319 320 319 319 327 324 322 323 324 323 324 323 318 317 318 318 319 323 326 324 329 332 334 335 337 335 334 335 338
311 310 310 310 310 310 309 309 309 309 309 309 310 311 312 315 316 316 319 319 318 320 326 323 322 322 322 322 323 322 315 318 316 318 318 319 320 322 325 329 332 338 331 331 332 333 335
310 309 310 310 310 310 310 310 310 309 309 309 310 312 313 315 316 317 318 317 320 316 328 324 321 320 321 322 319 320 314 317 318 316 318 320 320 321 324 326 329 333 328 328 332 335 338
309 310 310 309 309 309 309 309 310 310 310 310 311 313 315 315 315 315 318 319 317 323 327 325 321 322 324 322 321 317 318 317 317 317 317 319 317 322 325 325 327 326 329 334 335 337 343
309 309 309 309 308 309 309 309 309 310 310 310 312 314 315 312 317 315 316 318 323 322 323 327 324 324 321 321 321 320 320 319 319 319 319 318 319 319 321 322 322 325 327 334 339 340 342
309 309 309 308 308 309 309 309 309 310 310 312 313 315 317 316 316 317 318 324 322 321 329 326 323 323 323 321 321 320 320 320 316 317 318 320 320 318 319 321 325 325 327 334 340 340 340
309 309 308 308 308 309 309 309 309 310 310 314 315 317 319 320 320 316 322 320 318 322 325 322 325 322 323 320 321 320 322 322 321 318 320 320 320 318 319 321 323 329 330 330 332 333 336
310 309 308 308 308 309 309 309 309 310 311 314 316 317 320 320 319 317 324 319 323 323 324 322 327 326 328 326 322 320 320 320 320 318 320 321 322 319 320 323 323 329 330 334 336 339 338
312 310 308 308 308 309 309 309 309 310 313 315 316 325 321 319 317 320 324 322 322 322 323 325 325 327 326 327 325 324 322 320 318 317 317 318 320 322 320 323 325 329 330 332 334 337 335
315 310 308 308 308 309 310 309 309 310 312 315 316 328 321 320 325 321 323 323 320 327 324 325 326 327 326 326 326 325 326 324 328 318 318 318 320 322 322 320 319 323 328 332 329 335 337
318 311 308 308 307 309 310 309 309 310 312 313 322 323 321 321 331 330 328 329 327 330 330 327 327 324 324 328 329 324 326 330 330 318 320 318 321 323 323 321 320 322 324 327 328 331 338
320 313 308 308 307 309 310 310 309 310 312 314 321 331 327 324 322 329 331 332 333 329 329 329 328 328 333 326 324 326 330 333 332 331 326 320 318 323 324 324 326 330 330 328 331 335 334
322 315 308 307 307 308 310 310 309 310 312 315 321 329 325 332 330 330 329 331 333 334 331 332 334 337 337 338 325 328 332 333 333 333 326 321 330 321 321 319 320 324 327 331 332 334 336
323 319 310 307 307 308 310 310 309 310 314 319 326 328 326 328 326 329 326 332 333 334 334 335 338 337 333 335 339 335 332 334 335 335 335 329 336 332 335 327 320 324 328 331 332 333 333
323 321 313 307 307 308 310 311 310 310 313 317 317 318 323 324 329 329 332 332 333 332 332 333 334 336 337 337 335 336 335 333 333 338 338 336 337 339 336 334 328 327 327 330 330 331 330
323 322 316 308 307 308 310 310 310 309 310 313 315 318 324 330 329 331 329 329 330 330 333 332 333 335 334 330 330 331 333 335 335 334 333 339 339 338 335 337 338 329 329 326 325 326 330
323 321 318 309 307 308 310 310 310 309 309 311 313 316 322 327 326 328 328 329 328 329 331 332 331 332 329 333 335 336 337 338 338 335 335 333 335 339 339 338 336 335 336 334 335 332 336
323 322 318 310 307 308 310 310 310 309 309 309 312 314 317 321 321 323 326 326 328 330 330 330 329 327 333 336 338 340 340 339 338 338 333 333 331 337 335 337 333 332 339 341 341 337 337
322 321 316 309 307 307 309 309 310 310 309 309 312 315 316 321 320 321 325 326 325 328 330 329 330 331 333 342 339 344 343 340 344 341 340 339 339 341 339 340 338 333 339 340 339 341 346
321 320 316 309 307 307 309 309 310 310 309 310 313 315 317 320 319 319 320 322 323 324 331 329 331 333 337 345 343 345 346 344 343 340 342 341 341 343 340 341 340 338 343 345 344 345 347
320 319 315 308 307 307 309 309 310 310 309 311 314 314 316 317 317 316 317 317 318 320 322 323 329 329 333 341 340 340 344 341 344 344 335 340 341 344 344 342 339 338 340 339 340 344 347

GFSGBSN_925_thetae_291.txt.gz
Theta_e
319 318 318 318 318 317 317 317 317 317 318 318 318 317 317 317 317 317 317 317 318 319 320 320 319 319 323 328 325 322 320 324 332 329 332 337 340 341 342 341 340 340 342 344 348 348 346
318 317 317 318 319 317 317 316 316 316 317 317 316 316 316 317 317 317 317 317 318 319 320 320 320 318 329 324 320 321 322 324 331 331 335 338 340 341 342 341 341 340 341 343 346 347 347
317 316 316 317 317 316 316 316 316 315 315 315 315 315 316 316 317 317 317 317 318 320 321 321 320 322 326 325 320 320 322 324 329 332 338 339 339 340 341 341 341 341 341 344 344 344 348
318 317 316 315 315 314 315 315 314 315 315 315 315 315 314 314 316 317 317 318 320 322 321 320 317 327 327 321 320 320 322 324 326 329 335 338 338 339 340 341 340 341 341 342 345 342 347
316 316 316 315 315 314 315 315 314 312 312 311 311 312 312 312 313 316 317 319 321 317 316 316 325 329 327 319 320 321 321 325 327 329 333 331 334 339 339 341 343 342 342 343 343 340 344
315 315 313 313 314 313 312 311 310 311 311 310 310 310 310 311 312 315 318 320 324 320 323 325 326 328 326 323 324 323 322 325 328 330 332 333 339 339 339 341 344 345 342 340 341 342 342
316 313 311 312 310 310 310 309 309 310 310 310 309 308 309 310 312 316 319 327 331 332 330 331 330 326 325 325 324 323 323 326 328 330 332 334 337 338 338 339 340 341 343 341 341 340 340
312 311 310 310 310 310 310 311 311 311 310 310 309 308 308 310 313 319 322 331 328 327 330 329 327 327 327 327 326 324 323 325 326 328 330 334 334 335 336 338 339 339 342 341 340 341 340
313 311 310 310 309 309 309 310 310 311 310 310 310 309 308 310 317 322 327 328 325 327 332 330 328 327 326 325 326 325 324 326 326 327 329 331 333 331 334 337 338 340 340 341 342 341 340
314 311 310 310 309 309 309 309 310 310 310 310 310 310 309 311 321 323 328 327 325 327 337 330 327 328 327 325 326 325 323 325 326 326 328 328 329 330 332 334 336 338 337 337 340 342 341
319 312 310 310 309 309 309 309 309 309 310 310 311 311 310 313 318 325 327 325 325 328 338 328 326 326 326 326 326 325 324 325 324 323 325 326 326 328 329 330 332 333 334 337 340 340 340
321 314 310 309 309 309 309 309 309 309 310 310 311 312 313 321 321 322 323 324 327 332 335 328 326 326 325 327 325 325 323 324 325 323 324 324 326 325 326 328 329 331 333 336 338 337 339
322 318 311 310 309 309 309 309 310 309 310 311 313 314 314 317 326 322 323 328 334 334 331 328 326 325 325 325 324 324 323 323 323 323 324 324 324 325 325 327 329 330 332 336 337 338 337
322 320 314 311 308 309 309 310 310 309 310 312 314 316 322 319 321 321 325 333 335 329 331 329 328 326 326 326 325 325 325 324 324 325 326 326 325 324 325 325 327 330 330 333 336 335 333
322 321 317 312 308 308 309 310 311 310 311 314 317 324 328 327 322 323 330 334 330 330 330 329 329 330 328 326 326 326 326 326 326 325 325 326 326 326 325 325 326 328 330 329 328 330 331
323 322 320 314 308 308 309 310 310 310 312 314 320 328 327 325 324 325 332 333 328 331 328 329 331 331 329 328 326 326 327 327 326 325 325 327 327 327 326 325 325 326 330 329 329 331 334
323 323 321 317 311 308 308 310 310 310 313 317 324 334 325 322 324 329 332 330 326 329 327 331 333 331 332 328 327 326 328 327 326 326 326 325 326 328 326 326 325 326 326 329 331 330 332
323 323 322 319 314 308 308 310 310 310 314 320 329 335 325 325 331 330 330 328 319 327 327 330 332 334 332 329 329 329 330 333 332 331 326 327 327 328 328 328 327 327 328 328 332 334 336
321 323 323 321 316 309 308 310 311 310 311 319 334 332 326 327 336 331 329 329 328 327 330 331 332 333 333 332 331 330 332 333 331 330 330 329 326 327 328 327 327 326 328 329 329 331 334
322 322 323 322 319 311 308 310 311 310 311 317 333 333 330 329 332 335 332 331 331 328 331 331 334 333 335 334 332 332 331 334 334 335 329 329 327 328 329 330 330 328 327 327 328 330 332
322 322 323 323 321 314 308 310 311 310 313 318 331 335 335 332 332 331 333 335 332 334 330 331 333 335 335 335 333 332 331 333 332 333 331 331 330 333 330 331 329 327 327 328 328 329 330
323 323 323 323 321 316 308 310 311 310 316 323 331 333 332 333 334 334 329 334 333 333 335 332 334 332 336 337 337 336 332 332 333 335 333 333 332 333 335 333 333 330 327 326 327 330 330
323 323 323 324 322 318 309 310 311 310 316 322 324 325 333 331 331 332 333 332 333 334 335 338 335 337 337 341 340 339 339 338 336 337 336 335 335 335 336 334 334 336 332 328 327 329 330
322 323 323 324 323 320 310 310 311 310 312 318 321 323 329 330 331 331 331 332 333 335 339 334 335 337 340 337 337 337 336 334 334 335 334 335 336 336 337 335 337 333 334 334 329 328 329
321 322 323 324 323 321 312 310 311 310 310 316 319 323 327 329 329 330 333 333 333 334 335 337 336 336 336 336 337 335 335 335 335 334 334 334 335 336 337 337 335 333 335 339 342 329 344
320 322 322 322 322 322 314 309 310 310 310 314 319 320 323 326 326 328 329 330 332 333 333 334 334 334 334 336 337 339 340 337 338 336 335 335 336 336 336 338 339 336 337 338 337 338 347
318 320 321 322 322 322 313 309 310 310 310 312 318 319 321 324 322 325 326 328 330 332 335 333 333 334 334 335 337 337 338 336 340 340 343 340 338 336 337 338 336 341 340 338 338 347 347
318 319 321 321 321 320 311 309 310 310 310 312 319 318 319 323 323 323 323 327 328 329 332 331 330 331 334 336 335 336 337 337 341 337 337 339 340 341 339 343 344 342 341 343 346 344 345
317 318 319 320 320 318 309 308 310 310 310 311 318 317 318 321 323 320 320 321 323 326 330 328 333 338 336 333 333 334 337 339 340 342 335 337 336 338 342 344 343 344 341 342 341 343 345